Location: Caltech
(34.1382°N, 118.1253°W)
Time: 20:29:38
(UTC-07:00)

Uosat F - Visible Passes

Search period start: 27 July 2015 00:00
Search period end: 06 August 2015 00:00
Orbit: 751 x 761 km, 98.7° (Epoch: 27 July)

Date Brightness Start Highest point End Pass type
(mag) Time Alt. Az. Time Alt. Az. Time Alt. Az.
27 Jul 13.2 05:12:51 10° NE 05:17:02 27° E 05:21:17 10° SSE visible
30 Jul 13.7 04:54:32 10° NE 04:57:36 17° E 05:00:53 10° SE visible
01 Aug 13.2 05:13:44 10° NE 05:17:54 27° E 05:22:09 10° SSE visible
03 Aug 12.4 05:33:22 10° NNE 05:38:07 43° E 05:42:53 10° S visible
04 Aug 13.7 04:55:23 10° NE 04:58:28 17° E 05:01:46 10° SE visible
